Location: Hokitika
(42.7170°S, 170.9670°E)
Time: 21:19:18
(UTC+12:00)

ISS - Pass Details

Date: 22 May 2021
Orbit: 417 x 422 km, 51.6° (Epoch: 21 June)

Event Time Altitude Azimuth Distance (km) Brightness Sun altitude
Exits shadow 05:39:52 - 358° (N) 2,085 -0.2 -23.2°
Reaches altitude 10° 05:42:01 10° 22° (NNE) 1,518 -0.6 -22.8°
Maximum altitude 05:43:37 13° 50° (NE) 1,364 -0.4 -22.5°
Drops below altitude 10° 05:45:12 10° 78° (ENE) 1,526 0.2 -22.2°
Sets 05:48:15 0° 107° (ESE) 2,401 1.2 -21.6°
